Location: 22
(39.7117°N, 89.5929°W)
Time: 08:02:07
(UTC-05:00)

ARIANE 6 FM1 Upper Stage - Pass Details

Date: 12 April 2026
Orbit: 526 x 601 km, 62.0° (Epoch: 18 May)

Event Time Altitude Azimuth Distance (km) Brightness Sun altitude
Rises 05:40:05 0° 304° (NW) 2,662 5.8 -9.2°
Reaches altitude 10° 05:43:04 10° 280° (W) 1,771 4.7 -8.7°
Maximum altitude 05:45:16 15° 246° (WSW) 1,507 4.2 -8.3°
Drops below altitude 10° 05:47:28 10° 212° (SSW) 1,774 4.8 -7.8°
Sets 05:50:29 0° 188° (S) 2,670 5.9 -7.3°
